Location: Caltech
(34.1382°N, 118.1253°W)
Time: 00:57:19
(UTC-07:00)

Uosat F - Visible Passes

Search period start: 28 May 2015 00:00
Search period end: 07 June 2015 00:00
Orbit: 751 x 762 km, 98.7° (Epoch: 27 May)

Date Brightness Start Highest point End Pass type
(mag) Time Alt. Az. Time Alt. Az. Time Alt. Az.
28 May 13.3 05:01:50 10° NE 05:05:56 26° E 05:10:09 10° SSE visible
31 May 13.7 04:43:38 10° ENE 04:46:34 16° E 04:49:45 10° SE visible
02 Jun 13.3 05:02:48 10° NE 05:06:55 26° E 05:11:08 10° SSE visible
05 Jun 13.7 04:44:34 10° NE 04:47:33 16° E 04:50:45 10° SE visible
